User: anonymous   Login
Location: Navalmoral
(40.4603°N, 4.7686°W)
Time: 01:27:48
(UTC+00:00)
Language:

SPOT 5 - Orbit

View from above orbital plane
View from above orbital plane
View from above satellite
View from above satellite

Ground track
Ground track

The orbit data is extracted from the following two-line orbital elements,

1 27421U 02021A   24282.57901924  .00003867  00000-0  83258-3 0  9999
2 27421  98.0747 335.0316 0132387  31.8188 329.0921 14.53668124173228
Epoch (UTC): 08 October 2024 13:53:47
Eccentricity: 0.0132387
inclination: 98.0747°
perigee height: 620 km
apogee height: 807 km
right ascension of ascending node: 335.0316°
argument of perigee: 31.8188°
revolutions per day: 14.53668124
mean anomaly at epoch: 329.0921°
orbit number at epoch: 17322

The dashed part of the orbit path shows where the satellite is in the earth's shadow,  

DLR